Location: Cheyres
(46.8153°N, 6.7877°E)
Time: 14:33:34
(UTC+00:00)

FENGYUN 1C DEB - Pass Details

Date: 01 December 2021
Orbit: 843 x 915 km, 99.0° (Epoch: 18 January)

Event Time Altitude Azimuth Distance (km) Brightness Sun altitude
Exits shadow 20:21:31 10° 317° (NW) 2,490 ? -46.1°
Drops below altitude 10° 20:21:36 10° 317° (NW) 2,510 ? -46.1°
Sets 20:24:33 0° 333° (NNW) 3,441 ? -46.6°
